Location: Centerville
(32.8776°N, 96.6203°W)
Time: 05:37:34
(UTC+00:00)

Okean 1 Rocket - Pass Details

Date: 17 June 2021
Orbit: 607 x 633 km, 82.5° (Epoch: 29 July)

Event Time Altitude Azimuth Distance (km) Brightness Sun altitude
Rises 02:55:32 0° 359° (N) 2,879 7.1 -14.4°
Reaches altitude 10° 02:57:47 10° 4° (N) 1,974 6.2 -14.8°
Maximum altitude 03:02:04 55° 82° (E) 744 3.2 -15.4°
Enters shadow 03:04:15 27° 149° (SSE) 1,191 3.9 -15.8°
